Weather History for KCKC - January, 2014

Change the Weather History Date:

Wednesday, January 8, 2014

  Actual Average Record
Temperature  
Mean Temperature -8 °F -  
Max Temperature 1 °F 14 °F 42 °F (2003)
Min Temperature -18 °F 1 °F -18 °F (2014)
Degree Days  
Heating Degree Days 74    
Moisture  
Dew Point -19 °F    
Average Humidity 65    
Maximum Humidity 77    
Minimum Humidity 46    
Precipitation  
Precipitation 0.00 in - - ()
Sea Level Pressure  
Sea Level Pressure 30.13 in    
Wind  
Wind Speed 8 mph (WNW)    
Max Wind Speed 15 mph    
Max Gust Speed 23 mph    
Visibility 10 miles    
Events Snow    
Averages and records for this station are not official NWS values.
T = Trace of Precipitation, MM = Missing Value Source: NWS Daily Summary

Daily Weather History Graph

Daily Weather History Graph

Search for Another Location

Airport or City:

Trip Planner

Search our weather history database for the weather conditions in past years. The results will help you decide how hot, cold, wet, or windy it might be!

Date:

Astronomy

Jan. 08, 2014 Rise Set
Actual Time 7:49 AM CST 4:27 PM CST
Civil Twilight 7:13 AM CST 5:03 PM CST
Nautical Twilight 6:34 AM CST 5:42 PM CST
Astronomical Twilight 5:57 AM CST 6:19 PM CST
Moon 11:34 AM CST (1/8) 12:39 AM CST (1/8)
Length of Visible Light 9h 49m
Length of Day
8h 38m
First Quarter, 56% of the Moon is Illuminated
Jan 8
First Quarter
Jan 15
Full
Jan 23
Last Quarter
Jan 30
New
Feb 6
First Quarter

Hourly Weather History & Observations

Time (CST) Temp. Windchill Dew Point Humidity Pressure Visibility Wind Dir Wind Speed Gust Speed Precip Events Conditions
12:14 AM -14.8 °F -32.2 °F -22.0 °F 70% 29.99 in 10.0 mi WNW 8.1 mph - N/A   Clear
12:33 AM -16.6 °F -35.7 °F -23.8 °F 70% 29.99 in 10.0 mi NW 9.2 mph - N/A   Clear
12:53 AM -16.6 °F -36.8 °F -23.8 °F 70% 29.99 in 10.0 mi NW 10.4 mph 16.1 mph N/A   Clear
1:13 AM -16.6 °F -34.4 °F -23.8 °F 70% 30.00 in 10.0 mi NW 8.1 mph - N/A   Scattered Clouds
1:34 AM -14.8 °F -32.2 °F -22.0 °F 70% 30.00 in 7.0 mi NW 8.1 mph - N/A   Scattered Clouds
1:53 AM -14.8 °F -34.6 °F -22.0 °F 70% 30.01 in 7.0 mi NW 10.4 mph 16.1 mph N/A   Clear
2:14 AM -14.8 °F -33.5 °F -22.0 °F 70% 30.01 in 7.0 mi NW 9.2 mph - N/A   Clear
2:33 AM -14.8 °F -33.5 °F -22.0 °F 70% 30.02 in 10.0 mi NW 9.2 mph - N/A   Clear
2:53 AM -14.8 °F -33.5 °F -22.0 °F 70% 30.02 in 10.0 mi NW 9.2 mph 16.1 mph N/A   Scattered Clouds
3:14 AM -16.6 °F -35.7 °F -23.8 °F 70% 30.02 in 10.0 mi WNW 9.2 mph - N/A   Scattered Clouds
3:33 AM -16.6 °F -34.4 °F -23.8 °F 70% 30.03 in 10.0 mi WNW 8.1 mph - N/A   Scattered Clouds
3:54 AM -16.6 °F -34.4 °F -23.8 °F 70% 30.04 in 10.0 mi WNW 8.1 mph - N/A   Scattered Clouds
4:13 AM -16.6 °F -37.9 °F -23.8 °F 70% 30.03 in 10.0 mi NW 11.5 mph 17.3 mph N/A   Scattered Clouds
4:33 AM -16.6 °F -38.9 °F -23.8 °F 70% 30.04 in 10.0 mi WNW 12.7 mph 20.7 mph N/A   Scattered Clouds
4:54 AM -16.6 °F -37.9 °F -23.8 °F 70% 30.04 in 10.0 mi WNW 11.5 mph 19.6 mph N/A   Clear
5:13 AM -16.6 °F -35.7 °F -23.8 °F 70% 30.05 in 10.0 mi WNW 9.2 mph 19.6 mph N/A   Scattered Clouds
5:34 AM -16.6 °F -35.7 °F -23.8 °F 70% 30.06 in 10.0 mi WNW 9.2 mph 17.3 mph N/A   Clear
5:54 AM -16.6 °F -32.9 °F -23.8 °F 70% 30.06 in 10.0 mi WNW 6.9 mph - N/A   Scattered Clouds
6:13 AM -16.6 °F -31.3 °F -23.8 °F 70% 30.07 in 10.0 mi WNW 5.8 mph - N/A   Scattered Clouds
6:33 AM -18.4 °F -31.4 °F -23.8 °F 76% 30.07 in 10.0 mi WNW 4.6 mph - N/A   Scattered Clouds
6:53 AM -18.4 °F -33.4 °F -25.6 °F 70% 30.08 in 10.0 mi WNW 5.8 mph - N/A   Clear
7:14 AM -18.4 °F -31.4 °F -25.6 °F 70% 30.08 in 10.0 mi NW 4.6 mph - N/A   Clear
7:33 AM -16.6 °F -31.3 °F -23.8 °F 70% 30.08 in 10.0 mi WNW 5.8 mph - N/A   Clear
7:54 AM -16.6 °F -36.8 °F -23.8 °F 70% 30.08 in 10.0 mi NW 10.4 mph 16.1 mph N/A   Clear
8:14 AM -14.8 °F -34.6 °F -22.0 °F 70% 30.08 in 10.0 mi NW 10.4 mph 16.1 mph N/A   Clear
8:33 AM -13.0 °F -30.0 °F -20.2 °F 70% 30.09 in 10.0 mi WNW 8.1 mph - N/A   Clear
8:54 AM -11.2 °F -29.0 °F -18.4 °F 70% 30.11 in 10.0 mi WNW 9.2 mph 19.6 mph N/A Snow Light Snow
9:13 AM -11.2 °F -31.1 °F -18.4 °F 70% 30.11 in 10.0 mi WNW 11.5 mph 19.6 mph N/A   Clear
9:34 AM -9.4 °F -26.8 °F -16.6 °F 71% 30.11 in 10.0 mi WNW 9.2 mph 18.4 mph N/A   Clear
9:53 AM -9.4 °F -29.8 °F -16.6 °F 71% 30.11 in 5.0 mi WNW 12.7 mph 23.0 mph N/A Snow Light Snow
10:13 AM -7.6 °F -24.6 °F -16.6 °F 65% 30.12 in 10.0 mi WNW 9.2 mph 19.6 mph N/A Snow Light Snow
10:34 AM -7.6 °F -23.4 °F -16.6 °F 65% 30.12 in 10.0 mi WNW 8.1 mph 17.3 mph N/A Snow Light Snow
10:53 AM -5.8 °F -16.7 °F -16.6 °F 60% 30.13 in 10.0 mi West 4.6 mph - N/A   Clear
11:14 AM -2.2 °F -12.5 °F -16.6 °F 50% 30.13 in 10.0 mi West 4.6 mph - N/A   Clear
11:34 AM -2.2 °F -12.5 °F -16.6 °F 50% 30.12 in 10.0 mi West 4.6 mph - N/A   Clear
11:52 AM -2.2 °F -19.9 °F -16.6 °F 50% 30.13 in 10.0 mi West 11.5 mph 17.3 mph N/A   Clear
12:14 PM -0.4 °F - -16.6 °F 46% 30.12 in 10.0 mi Calm Calm - N/A   Clear
12:31 PM -0.4 °F -18.4 °F -16.6 °F 46% 30.12 in 10.0 mi West 12.7 mph 23.0 mph N/A   Clear
12:54 PM -0.4 °F -19.2 °F -14.8 °F 51% 30.13 in 10.0 mi West 13.8 mph 19.6 mph N/A Snow Light Snow
1:14 PM 1.4 °F -11.3 °F -13.0 °F 51% 30.13 in 10.0 mi West 6.9 mph - N/A   Clear
1:33 PM 1.4 °F -12.5 °F -13.0 °F 51% 30.14 in 10.0 mi WNW 8.1 mph - N/A   Clear
1:54 PM -0.4 °F -13.4 °F -14.8 °F 51% 30.15 in 10.0 mi WNW 6.9 mph 20.7 mph N/A   Clear
2:14 PM -0.4 °F -19.9 °F -14.8 °F 51% 30.15 in 10.0 mi WNW 15.0 mph 21.9 mph N/A Snow Light Snow
2:33 PM -0.4 °F -12.0 °F -14.8 °F 51% 30.16 in 10.0 mi WNW 5.8 mph - N/A   Clear
2:53 PM -0.4 °F -14.7 °F -14.8 °F 51% 30.17 in 10.0 mi WNW 8.1 mph - N/A   Clear
3:14 PM -2.2 °F -15.6 °F -14.8 °F 55% 30.18 in 10.0 mi WNW 6.9 mph 19.6 mph N/A   Clear
3:33 PM -2.2 °F -16.8 °F -14.8 °F 55% 30.19 in 10.0 mi WNW 8.1 mph - N/A   Clear
3:53 PM -2.2 °F -18.9 °F -14.8 °F 55% 30.19 in 10.0 mi WNW 10.4 mph - N/A   Clear
4:14 PM -5.8 °F -21.2 °F -14.8 °F 65% 30.20 in 10.0 mi WNW 8.1 mph - N/A   Clear
4:33 PM -5.8 °F -19.9 °F -14.8 °F 65% 30.20 in 10.0 mi NW 6.9 mph - N/A   Clear
4:53 PM -5.8 °F -21.2 °F -14.8 °F 65% 30.21 in 10.0 mi WNW 8.1 mph - N/A   Clear
5:14 PM -7.6 °F -22.1 °F -14.8 °F 71% 30.20 in 10.0 mi WNW 6.9 mph - N/A   Clear
5:33 PM -7.6 °F -18.8 °F -16.6 °F 65% 30.21 in 10.0 mi West 4.6 mph - N/A   Clear
5:54 PM -7.6 °F -23.4 °F -16.6 °F 65% 30.21 in 10.0 mi WNW 8.1 mph - N/A   Scattered Clouds
6:14 PM -7.6 °F -20.6 °F -16.6 °F 65% 30.22 in 10.0 mi WNW 5.8 mph - N/A   Scattered Clouds
6:33 PM -7.6 °F -18.8 °F -16.6 °F 65% 30.23 in 10.0 mi WNW 4.6 mph - N/A   Scattered Clouds
6:53 PM -7.6 °F - -16.6 °F 65% 30.24 in 10.0 mi Calm Calm - N/A   Scattered Clouds
7:14 PM -7.6 °F -18.8 °F -16.6 °F 65% 30.24 in 10.0 mi NNW 4.6 mph - N/A   Clear
7:33 PM -7.6 °F -18.8 °F -16.6 °F 65% 30.23 in 10.0 mi NNW 4.6 mph - N/A   Clear
7:54 PM -7.6 °F -22.1 °F -16.6 °F 65% 30.23 in 10.0 mi WNW 6.9 mph - N/A   Clear
8:13 PM -7.6 °F -22.1 °F -16.6 °F 65% 30.25 in 10.0 mi WNW 6.9 mph - N/A   Scattered Clouds
8:33 PM -9.4 °F -25.6 °F -16.6 °F 71% 30.25 in 10.0 mi NW 8.1 mph - N/A   Clear
8:54 PM -7.6 °F -20.6 °F -16.6 °F 65% 30.23 in 10.0 mi NW 5.8 mph - N/A   Scattered Clouds
9:13 PM -9.4 °F -20.9 °F -16.6 °F 71% 30.23 in 10.0 mi WNW 4.6 mph - N/A   Clear
9:33 PM -9.4 °F -20.9 °F -16.6 °F 71% 30.24 in 10.0 mi WNW 4.6 mph - N/A   Clear
9:54 PM -9.4 °F - -16.6 °F 71% 30.24 in 10.0 mi Calm Calm - N/A   Scattered Clouds
10:14 PM -11.2 °F - -18.4 °F 70% 30.23 in 10.0 mi Calm Calm - N/A   Scattered Clouds
10:33 PM -11.2 °F - -18.4 °F 70% 30.23 in 10.0 mi Calm Calm - N/A   Clear
10:54 PM -11.2 °F -20.6 °F -18.4 °F 70% 30.24 in 10.0 mi West 3.5 mph - N/A   Scattered Clouds
11:14 PM -13.0 °F - -20.2 °F 70% 30.24 in 10.0 mi Calm Calm - N/A   Clear
11:33 PM -14.8 °F - -20.2 °F 77% 30.24 in 10.0 mi Calm Calm - N/A   Clear
11:53 PM -16.6 °F - -22.0 °F 76% 30.23 in 10.0 mi Calm Calm - N/A   Scattered Clouds